Reggio Calabria, Italy

2:29 PM CET on February 22, 2017 (GMT +0100)
Reggio Calabria

Weather History for LICR - March, 2013

Change the Weather History Date:

Monday, March 4, 2013

  Actual Average Record
Temperature  
Mean Temperature 52 °F -  
Max Temperature 60 °F 61 °F 73 °F (2001)
Min Temperature 44 °F 50 °F 44 °F (2013)
Degree Days  
Heating Degree Days 13    
Growing Degree Days 2 (Base 50)    
Moisture  
Dew Point 44 °F    
Average Humidity 70    
Maximum Humidity 87    
Minimum Humidity 45    
Precipitation  
Precipitation 0.00 in - - ()
Sea Level Pressure  
Sea Level Pressure 30.12 in    
Wind  
Wind Speed 5 mph ()    
Max Wind Speed 10 mph    
Max Gust Speed -    
Visibility 6.2 miles    
Events      
Averages and records for this station are not official NWS values.
T = Trace of Precipitation, MM = Missing Value Source: Averaged Metar Reports

Daily Weather History Graph

Daily Weather History Graph

Search for Another Location

Airport or City:

Trip Planner

Search our weather history database for the weather conditions in past years. The results will help you decide how hot, cold, wet, or windy it might be!

Date:

Astronomy

Mar. 04, 2013 Rise Set
Actual Time 6:24 AM CET 5:53 PM CET
Civil Twilight 5:58 AM CET 6:20 PM CET
Nautical Twilight 5:28 AM CET 6:50 PM CET
Astronomical Twilight 4:57 AM CET 7:21 PM CET
Moon 12:11 AM CET (3/4) 10:23 AM CET (3/4)
Length of Visible Light 12h 21m
Length of Day
11h 28m
Waning Gibbous, 55% of the Moon is Illuminated
Mar 4
Waning Gibbous
Mar 4
Last Quarter
Mar 11
New
Mar 19
First Quarter
Mar 27
Full

Hourly Weather History & Observations

Time (CET) Temp. Windchill Dew Point Humidity Pressure Visibility Wind Dir Wind Speed Gust Speed Precip Events Conditions
5:50 AM 44.6 °F 41.4 °F 37.4 °F 76% 30.06 in - NE 5.8 mph - N/A   Clear
6:50 AM 44.6 °F 40.7 °F 37.4 °F 76% 30.06 in - NE 6.9 mph - N/A   Clear
7:50 AM 51.8 °F - 39.2 °F 62% 30.09 in - Variable 2.3 mph - N/A   Clear
8:50 AM 55.4 °F - 42.8 °F 63% 30.12 in - North 5.8 mph - N/A   Clear
9:50 AM 57.2 °F - 44.6 °F 63% 30.12 in - North 5.8 mph - N/A   Clear
10:50 AM 59.0 °F - 41.0 °F 51% 30.12 in - West 5.8 mph - N/A   Clear
11:50 AM 60.8 °F - 39.2 °F 45% 30.12 in - West 4.6 mph - N/A   Clear
12:50 PM 59.0 °F - 39.2 °F 48% 30.12 in - WSW 6.9 mph - N/A   Clear
1:50 PM 59.0 °F - 44.6 °F 59% 30.09 in - SW 5.8 mph - N/A   Clear
2:50 PM 59.0 °F - 48.2 °F 67% 30.09 in 6.2 mi SSW 8.1 mph - N/A   Partly Cloudy
3:50 PM 59.0 °F - 50.0 °F 72% 30.09 in 6.2 mi SSW 10.4 mph - N/A   Partly Cloudy
4:50 PM 57.2 °F - 48.2 °F 72% 30.09 in 6.2 mi SW 10.4 mph - N/A   Partly Cloudy
5:50 PM 55.4 °F - 46.4 °F 72% 30.12 in 6.2 mi SSW 9.2 mph - N/A   Partly Cloudy
6:50 PM 53.6 °F - 48.2 °F 82% 30.15 in 6.2 mi South 6.9 mph - N/A   Partly Cloudy
7:50 PM 50.0 °F - 46.4 °F 87% 30.15 in 6.2 mi ENE 3.5 mph - N/A   Partly Cloudy
8:50 PM 50.0 °F - 44.6 °F 82% 30.18 in - Variable 2.3 mph - N/A   Clear
9:50 PM 48.2 °F - 44.6 °F 87% 30.21 in - NE 5.8 mph - N/A   Clear
10:50 PM 48.2 °F - 42.8 °F 82% 30.21 in - East 2.3 mph - N/A   Clear
11:50 PM 46.4 °F 45.2 °F 42.8 °F 87% 30.18 in - ENE 3.5 mph - N/A   Clear